Weather observations for the past three days for
Victoria, Victoria Regional Airport
Imperial (Metric)
Date Time (cdt) Wind (mph) Vis. (mi.) Weather Sky Cond. Temperature (ºF) Relative Humidity Wind Chill (°F) Heat Index (°F) Pressure Precipitation (in)
Air Dwpt 6 hour altimeter (in) sea level (mb) 1 hr 3 hr 6 hr
Max. Min.
15 21:51 SE 7 10.00 Fair CLR 81 73.9 79% 86 29.85 1010.5
15 20:51 SE 9 10.00 Fair CLR 82.9 73.9 74% 89 29.84 1010.3
15 19:51 SE 14 10.00 Fair CLR 86 73 65% 93 29.84 1010.3
15 18:51 SE 16 10.00 Fair CLR 88 73 93 88 61% 96 29.83 1009.9
15 17:51 SE 18 10.00 Fair CLR 90 73.9 59% 99 29.83 1009.9
15 16:51 SE 14 G 25 10.00 Fair CLR 91.9 73.9 56% 102 29.84 1010.1
15 15:51 SE 14 10.00 Fair CLR 91.9 72 52% 100 29.85 1010.6
15 14:51 SE 10 10.00 Partly Cloudy SCT049 91.9 73.9 56% 102 29.87 1011.1
15 13:51 SE 13 10.00 Mostly Cloudy BKN043 BKN050 91 73.9 57% 101 29.88 1011.6
15 12:51 SE 10 10.00 Mostly Cloudy SCT042 BKN060 91 75 91.9 75 59% 102 29.9 1012.3
15 11:51 E 7 10.00 A Few Clouds FEW044 91 73 56% 100 29.92 1012.9
15 10:51 SE 7 10.00 A Few Clouds FEW030 89.1 73.9 61% 98 29.92 1013.1
15 09:51 E 6 10.00 A Few Clouds FEW060 87.1 77 72% 99 29.93 1013.4
15 08:51 SE 5 10.00 A Few Clouds FEW055 84.9 77 77% 95 29.94 1013.6
15 07:51 NE 3 8.00 A Few Clouds FEW050 79 77 94% 83 29.92 1012.9
15 06:51 NE 5 6.00 A Few Clouds with Haze FEW020 75.9 73.9 79 73.9 94% 75 29.91 1012.6
15 05:51 Calm 4.00 Fog/Mist CLR 75.9 75 97% 75 29.89 1012.1
15 04:51 E 3 5.00 Fog/Mist CLR 75.9 73.9 94% 75 29.88 1011.7
15 03:51 NE 5 5.00 Fog/Mist FEW026 75.9 75 97% 75 29.89 1012.1
15 02:51 NE 6 6.00 Fog/Mist CLR 77 75 94% 78 29.91 1012.5
15 01:51 NE 3 8.00 Fair CLR 78.1 75.9 93% 81 29.92 1012.9
15 00:51 Calm 8.00 A Few Clouds FEW026 78.1 75.9 89.1 78.1 93% 81 29.93 1013.3
14 23:51 E 5 9.00 Fair CLR 78.1 75.9 93% 81 29.93 1013.2
14 22:51 SE 6 10.00 Fair CLR 80.1 75 85% 85 29.92 1012.9
14 21:51 SE 8 10.00 Fair CLR 81 75 82% 87 29.9 1012.3
14 20:51 SE 10 10.00 Fair CLR 82.9 75 77% 90 29.89 1011.9
14 19:51 SE 14 10.00 Fair CLR 86 75 70% 95 29.87 1011.2
14 18:51 SE 13 10.00 Fair CLR 89.1 75.9 95 89.1 65% 100 29.86 1010.9
14 17:51 E 10 10.00 Fair CLR 93 66.9 42% 97 29.85 1010.7
14 16:51 E 9 10.00 Fair CLR 93.9 68 43% 98 29.87 1011.0
14 15:51 E 12 10.00 Fair CLR 93.9 70 46% 100 29.88 1011.6
14 14:51 E 10 G 20 10.00 Partly Cloudy SCT060 93.9 71.1 48% 101 29.9 1012.1
14 13:51 E 8 10.00 Partly Cloudy SCT050 93 73 52% 102 29.91 1012.7
14 12:51 E 8 10.00 Fair CLR 91.9 72 93 75.9 52% 100 29.93 1013.3
14 11:51 Calm 10.00 A Few Clouds FEW036 91.9 73.9 56% 102 29.94 1013.6
14 10:51 NE 6 10.00 Partly Cloudy SCT030 89.1 77 68% 102 29.95 1013.9
14 09:51 Vrbl 5 10.00 Fair CLR 87.1 77 72% 99 29.95 1014.1
14 08:51 NE 6 10.00 Fair CLR 84 78.1 82% 95 29.96 1014.5
14 07:51 NE 5 7.00 Fair CLR 79 77 94% 83 29.94 1013.7
14 06:51 Vrbl 5 4.00 Fog/Mist CLR 75.9 75 79 75.9 97% 75 29.93 1013.2
14 05:51 N 3 4.00 Fog/Mist CLR 77 75 94% 78 29.91 1012.7
14 04:51 Calm 5.00 Fog/Mist CLR 77 75.9 96% 78 29.91 1012.5
14 03:51 E 3 7.00 Fair CLR 78.1 75.9 93% 81 29.91 1012.4
14 01:51 NE 3 7.00 Fair CLR 78.1 75.9 93% 81 29.91 1012.6
14 00:51 SE 3 10.00 Fair CLR 79 75.9 90 79 90% 83 29.91 1012.5
13 23:51 E 3 10.00 Fair CLR 80.1 75.9 87% 85 29.91 1012.7
13 22:51 SE 6 10.00 Fair CLR 81 75.9 85% 87 29.9 1012.3
13 21:51 SE 8 10.00 Fair CLR 82 75 79% 89 29.88 1011.8
13 20:51 SE 8 10.00 Fair CLR 82.9 75 77% 90 29.88 1011.7
13 19:51 SE 10 10.00 Fair CLR 87.1 75 67% 97 29.87 1011.3
13 18:51 E 9 10.00 Fair CLR 90 75 95 89.1 62% 100 29.86 1011.0
13 17:51 E 9 10.00 Partly Cloudy SCT050 91.9 75.9 60% 104 29.87 1011.1
13 16:51 E 7 10.00 Partly Cloudy SCT050 93 73.9 54% 103 29.87 1011.3
13 15:51 Vrbl 3 10.00 Partly Cloudy SCT050 93.9 73 51% 103 29.88 1011.7
13 14:51 Vrbl 7 10.00 Fair CLR 93 73.9 54% 103 29.9 1012.2
13 13:51 E 5 10.00 Fair CLR 91.9 73 54% 101 29.92 1012.9
13 12:51 NE 6 10.00 Partly Cloudy SCT040 91.9 75 91.9 75 58% 103 29.93 1013.4
13 11:51 E 5 10.00 Partly Cloudy SCT030 90 75.9 63% 102 29.94 1013.6
13 10:51 E 7 10.00 Partly Cloudy SCT030 88 77 70% 100 29.94 1013.6
13 09:51 NE 3 10.00 Partly Cloudy FEW017 FEW028 SCT038 86 77 75% 97 29.95 1013.9
13 08:51 NE 5 9.00 A Few Clouds FEW060 82.9 78.1 85% 93 29.94 1013.7
13 07:51 NE 6 7.00 Partly Cloudy SCT050 78.1 75.9 93% 81 29.92 1013.0
13 06:51 Vrbl 3 7.00 Fair CLR 75 73.9 77 75 96% 73 29.9 1012.3
13 05:51 NE 5 4.00 Fog/Mist CLR 75 73.9 96% 73 29.88 1011.7
13 04:51 E 6 5.00 Fog/Mist CLR 75.9 75 97% 75 29.87 1011.4
13 02:51 Calm 7.00 A Few Clouds FEW020 75.9 75 97% 75 29.88 1011.7
13 01:51 NE 3 7.00 Fair CLR 77 75 94% 78 29.89 1012.1
13 00:51 E 3 9.00 Fair CLR 77 75 84.9 77 94% 78 29.9 1012.3
12 23:51 E 5 10.00 Fair CLR 77 75 94% 78 29.91 1012.6
12 22:51 NE 6 10.00 Fair CLR 78.1 75 90% 81 29.9 1012.5
Date Time (cdt) Wind (mph) Vis. (mi.) Weather Sky Cond. Air Dwpt Max. Min. Relative Humidity Wind Chill (°F) Heat Index (°F) altimeter (in) sea level (mb) 1 hr 3 hr 6 hr
6 hour
Temperature (ºF) Pressure Precipitation (in)